Flag for Norway Weather past 2 weeks in Lillestrøm, Norway

Now
51 °F

Passing clouds.


Feels Like: 51 °F
Forecast: 51 / 67 °F
Wind: 2 mph from Southwest

Location: Oslo-Blindern

Current Time: Aug 28, 2015 at 2:54:30 AM

Latest Report: Aug 28, 2015 at 2:00 AM


Visibility: 31 mi

Pressure: 29.56 "Hg

Humidity: 98%

Dew point: 51 °F

Location of LillestrømLocation

Historic Weather in Lillestrøm — Graph

°F

Lillestrøm temperature yesterday

Maximum temperature yesterday: 65 °F (at 5:00 PM)
Minimum temperature yesterday: 53 °F (at 10:00 PM)
Average temperature yesterday: 59 °F

Past Weeks' High & Low Weather Summary

 TemperatureHumidityPressure
High77 °F (Aug 23, 5:00 PM)98% (Aug 28, 1:00 AM)30.37 "Hg (Aug 28, 1:00 AM)
Low48 °F (Aug 13, 5:00 AM)27% (Aug 14, 8:00 PM)29.47 "Hg (Aug 27, 5:00 PM)
Average64 °F65%30.09 "Hg
* Reported Aug 13 1:00 AM — Aug 28 1:00 AM, Lillestrøm, Weather by CustomWeather, © 2015

Note: Actual official high and low records may vary slightly from our data, if they occured in-between our weather recording intervals... More about our weather records

Advertising

Lillestrøm weather history for previous 24 hours

 ConditionsComfort  
Time TempWeatherWind HumidityBarometerVisibility
1:00 AM
Fri, Aug 28
53 °FCool.2 mph98%29.56 "HgN/A
11:00 PM
Thu, Aug 27
53 °FPassing clouds.1 mph97%29.55 "Hg31 mi
10:00 PM53 °FCool.1 mph97%29.53 "HgN/A
9:00 PM53 °FCool.2 mph96%29.50 "HgN/A
8:00 PM55 °FSprinkles. Partly sunny.2 mph94%29.50 "Hg31 mi
7:00 PM58 °FCool.5 mph84%29.50 "HgN/A
6:00 PM63 °FMild.5 mph84%29.47 "HgN/A
5:00 PM65 °FPartly sunny.3 mph81%29.47 "Hg31 mi
4:00 PM64 °FMild.2 mph85%29.50 "HgN/A
3:00 PM61 °FCool.1 mph86%29.50 "HgN/A
2:00 PM58 °FRain showers. Low clouds.2 mph94%29.54 "Hg2 mi
1:00 PM60 °FCool.2 mph96%29.55 "HgN/A
12:00 PM60 °FCool.1 mph94%29.56 "HgN/A
11:00 AM60 °FLow clouds.2 mph93%29.58 "Hg40 mi
10:00 AM60 °FCool.3 mph92%29.59 "HgN/A
9:00 AM59 °FCool.5 mph95%29.59 "HgN/A
8:00 AM58 °FLow clouds.6 mph97%29.58 "Hg40 mi
7:00 AM59 °FCool.5 mph97%29.56 "HgN/A
6:00 AM60 °FCool.1 mph97%29.54 "HgN/A
5:00 AM60 °FHeavy rain. Low clouds.5 mph97%29.57 "Hg2 mi
4:00 AM62 °FCool.5 mph96%29.60 "HgN/A
3:00 AM62 °FCool.5 mph96%29.62 "HgN/A
2:00 AM62 °FLight rain. Low clouds.5 mph97%29.64 "Hg3 mi
Weather by CustomWeather, © 2015

See weather overviewHow to use our weather pages